Location: Bemmer
(51.5498°N, 5.6249°E)
Time: 12:54:24
(UTC+00:00)

Resurs 1-3 - Pass Details

Date: 03 March 2021
Orbit: 629 x 633 km, 97.9° (Epoch: 11 April)

Event Time Altitude Azimuth Distance (km) Brightness Sun altitude
Exits shadow 19:38:48 57° 150° (SSE) 753 3.7 -21.9°
Maximum altitude 19:39:41 81° 74° (ENE) 648 3.5 -22.0°
Drops below altitude 10° 19:44:06 10° 348° (NNW) 2,029 6.6 -22.7°
Sets 19:46:19 0° 347° (NNW) 2,942 7.5 -23.0°
